• Join FlightAware (Why Join?)
  • Login
  • US Flag 
11:06AM EDT


 

Airport Tracker/Info


-or-


 

Live Flight TrackerFlight Track Log ✈ DAL268 ✈ 06-Sep-2013 ✈ KJFK - LLBG / TLV

Flight Track Log - Related Links

Times and Time Zones

All times are in EDT time to prevent confusion due to time zone crossing. See the DAL268 flight status page for this flight to view local times or setup timezone preferences in your user account.

Time Position Orientation Groundspeed Altitude Reporting Facility
EDT Latitude Longitude Course Direction KTS MPH feet Rate Location/Type
09:47PM 40.6360 -73.8100 131° Southeast 120 138  Level FlightAware
09:48PM 40.6300 -73.7960 119° Southeast 98 113 420 Level FlightAware
09:48PM 40.6200 -73.7750 122° Southeast 181 208 300 1,200 Climbing FlightAware
09:48PM 40.6170 -73.7670 116° Southeast 178 205 600 1,680 Climbing FlightAware
09:48PM 40.6100 -73.7580 136° Southeast 179 206 900 1,200 Climbing FlightAware
09:49PM 40.6000 -73.7450 135° Southeast 193 222 1,200 960 Climbing FlightAware
09:49PM 40.5960 -73.7350 118° Southeast 203 234 1,300 480 Climbing FlightAware
09:49PM 40.5960 -73.7300 90° East 208 239 1,300  Level FlightAware
09:49PM 40.5960 -73.7260 90° East 213 245 1,300 720 Level FlightAware
09:49PM 40.6000 -73.6990 79° East 234 269 1,600 1,200 Climbing FlightAware
09:49PM 40.6050 -73.6700 77° East 251 289 2,100 1,380 Climbing FlightAware
09:50PM 40.6080 -73.6390 83° East 275 316 2,500 1,860 Climbing FlightAware
09:50PM 40.5990 -73.5930 104° East 285 328 3,600 2,520 Climbing FlightAware
09:51PM 40.5890 -73.5680 118° Southeast 288 331 4,400 2,520 Climbing FlightAware
09:51PM 40.5800 -73.5410 114° Southeast 297 342 5,000 2,820 Climbing FlightAware
09:51PM 40.5690 -73.5090 114° Southeast 293 337 6,100 2,700 Climbing FlightAware
09:52PM 40.5550 -73.4690 115° Southeast 304 350 7,000 2,580 Climbing FlightAware
09:52PM 40.5400 -73.4280 116° Southeast 302 348 8,200 2,580 Climbing FlightAware
09:52PM 40.5270 -73.3940 117° Southeast 312 359 8,900 2,280 Climbing FlightAware
09:53PM 40.5150 -73.3610 116° Southeast 315 362 9,700 1,800 Climbing FlightAware
09:53PM 40.4980 -73.2940 108° East 342 394 10,600 1,260 Climbing FlightAware
09:54PM 40.5010 -73.2530 84° East 360 414 10,900 1,260 Climbing FlightAware
09:54PM 40.5150 -73.1720 77° East 388 447 11,800 1,560 Climbing FlightAware
09:55PM 40.5290 -73.0870 78° East 410 472 12,800 1,560 Climbing FlightAware
09:55PM 40.5420 -73.0080 78° East 428 493 13,600 1,560 Climbing FlightAware
09:56PM 40.5580 -72.9190 77° East 441 507 14,600 1,800 Climbing FlightAware
09:56PM 40.5750 -72.8170 78° East 453 521 15,800 1,860 Climbing FlightAware
09:57PM 40.5920 -72.7200 77° East 463 533 16,900 1,860 Climbing FlightAware
09:58PM 40.6070 -72.6350 77° East 470 541 17,900 1,680 Climbing FlightAware
09:58PM 40.6240 -72.5320 78° East 479 551 18,900 1,740 Climbing FlightAware
09:59PM 40.6470 -72.4240 74° East 483 556 20,100 1,800 Climbing FlightAware
09:59PM 40.6780 -72.3410 64° Northeast 485 558 21,000 1,500 Climbing FlightAware
10:00PM 40.7170 -72.2490 61° Northeast 493 567 21,800 1,380 Climbing FlightAware
10:01PM 40.7590 -72.1490 61° Northeast 500 575 22,700 1,380 Climbing FlightAware
10:01PM 40.7980 -72.0580 60° Northeast 507 583 23,500 1,320 Climbing FlightAware
10:02PM 40.8360 -71.9660 61° Northeast 512 589 24,200 1,260 Climbing FlightAware
10:02PM 40.8780 -71.8670 61° Northeast 517 595 25,000 1,080 Climbing FlightAware
10:03PM 40.9350 -71.7300 61° Northeast 527 606 25,800 1,020 Climbing FlightAware
10:04PM 40.9770 -71.6300 61° Northeast 529 609 26,500 1,380 Climbing FlightAware
10:05PM 41.0420 -71.4720 61° Northeast 525 604 28,000 1,440 Climbing FlightAware
10:05PM 41.0790 -71.3840 61° Northeast 522 601 28,700 1,260 Climbing FlightAware
10:06PM 41.1210 -71.2830 61° Northeast 521 600 29,500 1,260 Climbing FlightAware
10:06PM 41.1680 -71.1680 61° Northeast 520 598 30,300 1,200 Climbing FlightAware
10:07PM 41.2090 -71.0680 61° Northeast 521 600 31,000 600 Climbing FlightAware
10:08PM 41.2470 -70.9760 61° Northeast 523 602 31,000  Level FlightAware
10:08PM 41.2870 -70.8770 62° Northeast 520 598 31,000  Level FlightAware
10:09PM 41.3350 -70.7570 62° Northeast 520 598 31,000  Level FlightAware
10:09PM 41.3700 -70.6720 61° Northeast 520 598 31,000  Level FlightAware
10:10PM 41.4240 -70.5390 62° Northeast 521 600 31,000  Level FlightAware
10:11PM 41.4620 -70.4410 63° Northeast 522 601 31,000  Level FlightAware
10:12PM 41.5210 -70.2940 62° Northeast 522 601 31,000  Level FlightAware
10:12PM 41.5590 -70.1990 62° Northeast 522 601 31,000  Level FlightAware
10:13PM 41.6020 -70.0900 62° Northeast 524 603 31,000  Level FlightAware
10:14PM 41.6650 -69.9300 62° Northeast 523 602 31,000  Level FlightAware
10:15PM 41.7370 -69.7460 62° Northeast 524 603 31,000  Level FlightAware
10:16PM 41.7820 -69.6310 62° Northeast 524 603 31,000  Level FlightAware
10:16PM 41.8250 -69.5180 63° Northeast 525 604 31,000  Level FlightAware
10:17PM 41.8720 -69.3980 62° Northeast 525 604 31,000  Level FlightAware
10:17PM 41.9070 -69.3100 62° Northeast 525 604 31,000  Level FlightAware
10:18PM 41.9570 -69.1750 63° Northeast 519 597 31,000  Level FlightAware
10:19PM 41.9930 -69.0800 63° Northeast 519 597 31,000  Level FlightAware
10:19PM 42.0270 -68.9900 63° Northeast 521 600 31,000  Level FlightAware
10:20PM 42.0720 -68.8720 63° Northeast 522 601 31,000  Level FlightAware
10:20PM 42.1120 -68.7680 63° Northeast 523 602 31,000  Level FlightAware
10:21PM 42.1440 -68.6820 63° Northeast 523 602 31,000  Level FlightAware
10:21PM 42.1830 -68.5770 63° Northeast 522 601 31,000  Level FlightAware
10:22PM 42.2250 -68.4670 63° Northeast 523 602 31,000  Level FlightAware
10:23PM 42.2660 -68.3570 63° Northeast 524 603 31,000  Level FlightAware
10:24PM 42.3130 -68.2270 64° Northeast 525 604 31,000  Level FlightAware
10:24PM 42.3470 -68.1340 64° Northeast 525 604 31,000  Level FlightAware
10:25PM 42.4120 -67.9590 63° Northeast 527 606 31,000  Level FlightAware
10:26PM 42.4620 -67.8250 63° Northeast 529 609 31,000  Level FlightAware
10:26PM 42.4990 -67.7220 64° Northeast 529 609 31,000  Level FlightAware
10:27PM 42.5310 -67.6310 64° Northeast 529 609 31,000  Level FlightAware
10:28PM 42.5640 -67.5400 64° Northeast 529 609 31,000  Level FlightAware
10:28PM 42.5980 -67.4460 64° Northeast 529 609 31,000  Level FlightAware
10:29PM 42.6310 -67.3540 64° Northeast 529 609 31,000  Level FlightAware
10:29PM 42.6640 -67.2630 64° Northeast 529 609 31,000  Level FlightAware
10:32PM 42.8950 -66.6160 64° Northeast 31,000  Level FlightAware
10:33PM 42.9350 -66.4990 65° Northeast 527 606 31,000  Level FlightAware
10:34PM 42.9720 -66.3940 64° Northeast 526 605 31,000  Level FlightAware
10:34PM 43.0090 -66.2870 65° Northeast 527 606 31,000  Level FlightAware
10:35PM 43.0450 -66.1840 64° Northeast 527 606 31,000  Level FlightAware
10:35PM 43.0820 -66.0770 65° Northeast 521 600 31,000  Level FlightAware
10:36PM 43.1180 -65.9700 65° Northeast 520 598 31,000  Level FlightAware
10:37PM 43.1530 -65.8670 65° Northeast 517 595 31,000  Level FlightAware
10:37PM 43.1930 -65.7500 65° Northeast 513 590 31,000  Level FlightAware
10:38PM 43.2290 -65.6440 65° Northeast 510 587 31,000  Level FlightAware
10:38PM 43.2650 -65.5390 65° Northeast 509 586 31,000  Level FlightAware
10:39PM 43.3040 -65.4230 65° Northeast 511 588 31,000  Level FlightAware
10:40PM 43.3340 -65.3340 65° Northeast 511 588 31,000  Level FlightAware
10:40PM 43.3680 -65.2320 65° Northeast 512 589 31,000  Level FlightAware
10:41PM 43.4030 -65.1270 65° Northeast 512 589 31,000  Level FlightAware
10:41PM 43.4380 -65.0210 66° East 513 590 31,000  Level FlightAware
10:42PM 43.4730 -64.9160 65° Northeast 515 593 31,000  Level FlightAware
10:43PM 43.5070 -64.8120 66° East 517 595 31,000  Level FlightAware
10:43PM 43.5400 -64.7100 66° East 518 596 31,000  Level FlightAware
10:44PM 43.5770 -64.5980 65° Northeast 518 596 31,000  Level FlightAware
10:44PM 43.6060 -64.5080 66° East 517 595 31,000  Level FlightAware
10:45PM 43.6460 -64.3870 65° Northeast 518 596 31,000  Level FlightAware
10:45PM 43.6790 -64.2830 66° East 518 596 31,000  Level FlightAware
10:46PM 43.7180 -64.1610 66° East 518 596 31,000  Level FlightAware
10:47PM 43.7530 -64.0530 66° East 518 596 31,000  Level FlightAware
10:47PM 43.7910 -63.9330 66° East 519 597 31,000  Level FlightAware
10:48PM 43.8310 -63.8080 66° East 519 597 31,000  Level FlightAware
10:49PM 43.8620 -63.7080 67° East 519 597 31,000  Level FlightAware
10:49PM 43.8930 -63.6110 66° East 520 598 31,000  Level FlightAware
10:50PM 43.9300 -63.4930 66° East 520 598 31,000  Level FlightAware
10:50PM 43.9640 -63.3840 67° East 519 597 31,000  Level FlightAware
10:51PM 43.9950 -63.2850 66° East 520 598 31,000  Level FlightAware
10:51PM 44.0250 -63.1850 67° East 520 598 31,000  Level FlightAware
10:52PM 44.0580 -63.0800 66° East 521 600 31,000  Level FlightAware
10:53PM 44.0960 -62.9560 67° East 522 601 31,000  Level FlightAware
10:53PM 44.1260 -62.8580 67° East 522 601 31,000  Level FlightAware
10:54PM 44.1570 -62.7560 67° East 522 601 31,000  Level FlightAware
10:54PM 44.1920 -62.6390 67° East 523 602 31,000  Level FlightAware
10:55PM 44.2290 -62.5150 67° East 524 603 31,000  Level FlightAware
10:56PM 44.2560 -62.4250 67° East 525 604 31,000  Level FlightAware
10:56PM 44.2890 -62.3150 67° East 525 604 31,000  Level FlightAware
10:57PM 44.3270 -62.1910 67° East 525 604 31,000  Level FlightAware
10:57PM 44.3530 -62.0980 69° East 525 604 31,000  Level FlightAware
10:58PM 44.3950 -61.9600 67° East 526 605 31,000  Level FlightAware
10:59PM 44.4250 -61.8550 68° East 526 605 31,000  Level FlightAware
10:59PM 44.4530 -61.7590 68° East 526 605 31,000  Level FlightAware
11:00PM 44.4810 -61.6590 69° East 526 605 31,000  Level FlightAware
11:01PM 44.5090 -61.5620 68° East 526 605 31,000  Level FlightAware
11:01PM 44.5590 -61.3940 67° East 526 605 31,000  Level FlightAware
11:02PM 44.5870 -61.2970 68° East 526 605 31,000  Level FlightAware
11:02PM 44.6150 -61.1970 68° East 526 605 31,000  Level FlightAware
11:03PM 44.6430 -61.1000 68° East 526 605 31,000  Level FlightAware
11:03PM 44.6710 -61.0030 68° East 526 605 31,000 960 Level FlightAware
11:04PM 44.7290 -60.7910 69° East 528 608 32,200 1,680 Climbing FlightAware
11:05PM 44.7540 -60.7020 68° East 522 601 32,900 660 Climbing FlightAware
11:05PM 44.7900 -60.5730 68° East 519 597 33,000 60 Climbing FlightAware
11:06PM 44.8200 -60.4630 69° East 515 593 33,000  Level FlightAware
11:06PM 44.8510 -60.3520 68° East 514 592 33,000  Level FlightAware
11:07PM 44.8790 -60.2490 69° East 513 590 33,000  Level FlightAware
11:08PM 44.9110 -60.1320 69° East 513 590 33,000  Level FlightAware
11:08PM 44.9410 -60.0200 69° East 513 590 33,000  Level FlightAware
11:09PM 44.9680 -59.9200 69° East 513 590 33,000  Level FlightAware
11:09PM 44.9980 -59.8060 70° East 512 589 33,000  Level FlightAware
11:10PM 45.0290 -59.6930 69° East 512 589 33,000  Level FlightAware
11:11PM 45.0560 -59.5910 69° East 511 588 33,000  Level FlightAware
11:11PM 45.0810 -59.4940 70° East 509 586 33,000  Level FlightAware
11:12PM 45.1130 -59.3720 70° East 509 586 33,000  Level FlightAware
11:12PM 45.1440 -59.2560 69° East 509 586 33,000  Level FlightAware
11:13PM 45.1690 -59.1580 70° East 509 586 33,000  Level FlightAware
11:13PM 45.1990 -59.0420 70° East 510 587 33,000  Level FlightAware
11:14PM 45.2280 -58.9280 70° East 511 588 33,000  Level FlightAware
11:15PM 45.2550 -58.8260 69° East 512 589 33,000  Level FlightAware
11:15PM 45.2850 -58.7060 70° East 512 589 33,000  Level FlightAware
11:16PM 45.3140 -58.5920 70° East 512 589 33,000  Level FlightAware
11:16PM 45.3390 -58.4910 71° East 512 589 33,000  Level FlightAware
11:17PM 45.3700 -58.3700 70° East 512 589 33,000  Level FlightAware
11:18PM 45.3950 -58.2690 71° East 512 589 33,000  Level FlightAware
11:18PM 45.4230 -58.1560 71° East 511 588 33,000  Level FlightAware
11:19PM 45.4500 -58.0480 70° East 510 587 33,000  Level FlightAware
11:19PM 45.4770 -57.9390 71° East 510 587 33,000  Level FlightAware
11:20PM 45.5030 -57.8310 71° East 509 586 33,000  Level FlightAware
11:20PM 45.5290 -57.7290 70° East 509 586 33,000  Level FlightAware
11:21PM 45.5530 -57.6270 71° East 507 583 33,000  Level FlightAware
11:22PM 45.5790 -57.5170 71° East 507 583 33,000  Level FlightAware
11:22PM 45.6030 -57.4200 70° East 507 583 33,000  Level FlightAware
11:23PM 45.6260 -57.3230 71° East 507 583 33,000  Level FlightAware
11:23PM 45.6500 -57.2260 70° East 507 583 33,000  Level FlightAware
11:24PM 45.6730 -57.1290 71° East 507 583 33,000  Level FlightAware
11:25PM 45.7160 -56.9440 72° East 506 582 33,000  Level FlightAware
11:25PM 45.7400 -56.8390 72° East 505 581 33,000  Level FlightAware
11:26PM 45.7750 -56.6800 72° East 506 582 33,000  Level FlightAware
11:27PM 45.7950 -56.5810 74° East 506 582 33,000  Level FlightAware
11:27PM 45.8170 -56.4800 73° East 506 582 33,000  Level FlightAware
11:28PM 45.8470 -56.3340 74° East 509 586 33,000  Level FlightAware
11:28PM 45.8720 -56.2160 73° East 510 587 33,000  Level FlightAware
11:29PM 45.8960 -56.0990 74° East 511 588 33,000  Level FlightAware
11:29PM 45.9210 -55.9790 73° East 513 590 33,000  Level FlightAware
11:30PM 45.9420 -55.8770 73° East 514 592 33,000  Level FlightAware
11:31PM 45.9660 -55.7600 74° East 516 594 33,000  Level FlightAware
11:31PM 45.9900 -55.6400 74° East 523 602 33,000  Level FlightAware
11:32PM 46.0190 -55.4950 74° East 526 605 33,000  Level FlightAware
11:33PM 46.0410 -55.3870 74° East 526 605 33,000  Level FlightAware
11:33PM 46.0770 -55.2080 74° East 528 608 33,000  Level FlightAware
11:34PM 46.1060 -55.0620 74° East 528 608 33,000  Level FlightAware
11:35PM 46.1280 -54.9490 74° East 529 609 33,000  Level FlightAware
11:35PM 46.1500 -54.8320 75° East 530 610 33,000  Level FlightAware
11:36PM 46.1770 -54.6970 74° East 531 611 33,000  Level FlightAware
11:36PM 46.2010 -54.5730 74° East 532 612 33,000  Level FlightAware
11:37PM 46.2220 -54.4630 75° East 531 611 33,000  Level FlightAware
11:38PM 46.2450 -54.3410 75° East 532 612 33,000  Level FlightAware
11:38PM 46.2690 -54.2130 75° East 535 616 33,000  Level FlightAware
11:39PM 46.2930 -54.0880 74° East 538 619 33,000  Level FlightAware
11:39PM 46.3130 -53.9830 75° East 540 621 33,000  Level FlightAware
11:40PM 46.3370 -53.8520 75° East 544 626 33,000  Level FlightAware
11:41PM 46.3610 -53.7230 75° East 548 631 33,000  Level FlightAware
11:41PM 46.3840 -53.5980 75° East 553 636 33,000  Level FlightAware
11:42PM 46.4050 -53.4820 75° East 555 639 33,000  Level FlightAware
11:42PM 46.4290 -53.3500 75° East 560 644 33,000  Level FlightAware
11:43PM 46.4520 -53.2220 75° East 563 648 33,000  Level FlightAware
11:43PM 46.4760 -53.0900 75° East 566 651 33,000  Level FlightAware
11:44PM 46.5010 -52.9440 76° East 568 654 33,000  Level FlightAware
11:45PM 46.5250 -52.8100 75° East 570 656 33,000  Level FlightAware
11:45PM 46.5490 -52.6730 76° East 570 656 33,000  Level FlightAware
11:46PM 46.5690 -52.5600 76° East 570 656 33,000  Level FlightAware
11:46PM 46.5920 -52.4260 76° East 570 656 33,000  Level FlightAware
11:47PM 46.6140 -52.2970 76° East 571 657 33,000  Level FlightAware
11:48PM 46.6370 -52.1610 76° East 571 657 33,000  Level FlightAware
11:48PM 46.6600 -52.0290 76° East 571 657 33,000  Level FlightAware
11:49PM 46.6830 -51.8920 76° East 569 655 33,000  Level FlightAware
11:49PM 46.7020 -51.7760 77° East 569 655 33,000  Level FlightAware
11:50PM 46.7240 -51.6450 76° East 571 657 33,000  Level FlightAware
11:51PM 46.7450 -51.5170 76° East 572 658 33,000  Level FlightAware
11:51PM 46.7650 -51.3960 76° East 573 659 33,000  Level FlightAware
11:52PM 46.7830 -51.2820 77° East 574 661 33,000  Level FlightAware
11:52PM 46.8090 -51.1220 77° East 572 658 33,000  Level FlightAware
11:53PM 46.8340 -50.9720 76° East 572 658 33,000  Level FlightAware
11:54PM 46.8610 -50.7960 77° East 567 652 33,000  Level FlightAware
11:54PM 46.8800 -50.6750 77° East 567 652 33,000  Level FlightAware
11:55PM 46.8980 -50.5610 77° East 567 652 33,000  Level FlightAware
11:56PM 46.9160 -50.4460 77° East 567 652 33,000  Level FlightAware
11:56PM 46.9340 -50.3320 77° East 567 652 33,000  Level FlightAware
11:57PM 46.9520 -50.2170 77° East 567 652 33,000  Level FlightAware
11:57PM 46.9710 -50.0990 77° East 567 652 33,000  Level FlightAware
11:58PM 46.9890 -49.9850 77° East 567 652 33,000  Level FlightAware
11:59PM 47.0000 -50.0000 70° East 558 642 33,000  Level ETMS Enhanced Traffic Management System
11:59PM 47.0560 -49.7130 70° East 575 662 33,000  Level FlightAware
11:59PM 47.0930 -49.5660 70° East 577 664 33,000  Level FlightAware
12:00AM 47.1230 -49.4450 70° East 579 666 33,000  Level FlightAware
12:01AM 47.1550 -49.3190 69° East 579 666 33,000  Level FlightAware
12:01AM 47.1830 -49.2060 70° East 579 666 33,000  Level FlightAware
12:02AM 47.2110 -49.0930 70° East 579 666 33,000  Level FlightAware
12:02AM 47.2390 -48.9790 70° East 579 666 33,000  Level FlightAware
12:03AM 47.2670 -48.8660 70° East 579 666 33,000  Level FlightAware
12:04AM 47.2950 -48.7520 70° East 579 666 33,000  Level FlightAware
12:04AM 47.3230 -48.6390 70° East 579 666 33,000  Level FlightAware
12:05AM 47.3510 -48.5250 70° East 579 666 33,000  Level FlightAware
12:05AM 47.3790 -48.4110 70° East 579 666 33,000  Level FlightAware
12:06AM 47.4070 -48.2970 70° East 579 666 33,000  Level FlightAware
12:07AM 47.4350 -48.1840 70° East 579 666 33,000  Level FlightAware
12:07AM 47.4640 -48.0670 70° East 579 666 33,000  Level FlightAware
12:08AM 47.4920 -47.9530 70° East 579 666 33,000  Level FlightAware
12:08AM 47.5200 -47.8390 70° East 579 666 33,000  Level FlightAware
12:09AM 47.5480 -47.7240 70° East 579 666 33,000  Level FlightAware
12:10AM 47.5760 -47.6100 70° East 579 666 33,000  Level FlightAware
12:11AM 47.6833 -46.9667 70° East 570 656 33,000  Level Gander Center
12:13AM 47.7482 -46.6761 72° East  Level FlightAware Approximate
12:20AM 48.0577 -45.2299 72° East  Level FlightAware Approximate
12:21AM 48.1005 -45.0219 73° East  Level FlightAware Approximate
12:22AM 48.1428 -44.8135 73° East  Level FlightAware Approximate
12:23AM 48.1848 -44.6048 73° East  Level FlightAware Approximate
12:24AM 48.2264 -44.3958 73° East  Level FlightAware Approximate
12:25AM 48.2676 -44.1864 73° East  Level FlightAware Approximate
12:26AM 48.3085 -43.9767 74° East  Level FlightAware Approximate
12:27AM 48.3489 -43.7667 74° East  Level FlightAware Approximate
12:28AM 48.3890 -43.5563 74° East  Level FlightAware Approximate
12:29AM 48.4287 -43.3456 74° East  Level FlightAware Approximate
12:30AM 48.4680 -43.1345 74° East  Level FlightAware Approximate
12:31AM 48.5069 -42.9232 74° East  Level FlightAware Approximate
12:32AM 48.5454 -42.7115 75° East  Level FlightAware Approximate
12:33AM 48.5836 -42.4995 75° East  Level FlightAware Approximate
12:34AM 48.6213 -42.2872 75° East  Level FlightAware Approximate
12:35AM 48.6587 -42.0746 75° East  Level FlightAware Approximate
12:36AM 48.6957 -41.8616 75° East  Level FlightAware Approximate
12:37AM 48.7322 -41.6483 75° East  Level FlightAware Approximate
12:38AM 48.7684 -41.4348 76° East  Level FlightAware Approximate
12:39AM 48.8042 -41.2209 76° East  Level FlightAware Approximate
12:40AM 48.8396 -41.0067 76° East  Level FlightAware Approximate
12:41AM 48.8746 -40.7922 76° East  Level FlightAware Approximate
12:42AM 48.9092 -40.5774 76° East  Level FlightAware Approximate
12:43AM 48.9434 -40.3624 76° East  Level FlightAware Approximate
12:44AM 48.9772 -40.1470 76° East  Level FlightAware Approximate
12:45AM 49.0099 -39.9312 78° East  Level FlightAware Approximate
12:46AM 49.0408 -39.7145 78° East  Level FlightAware Approximate
12:47AM 49.0712 -39.4976 78° East  Level FlightAware Approximate
12:47AM 49.0000 -40.0000 77° East 537 618 33,000  Level ETMS Enhanced Traffic Management System
12:48AM 49.1012 -39.2803 78° East  Level FlightAware Approximate
12:49AM 49.1306 -39.0647 78° East  Level FlightAware Approximate
12:50AM 49.1596 -38.8487 78° East  Level FlightAware Approximate
12:51AM 49.1882 -38.6325 78° East  Level FlightAware Approximate
12:52AM 49.2164 -38.4161 79° East  Level FlightAware Approximate
12:53AM 49.3303 -37.5409 79° East 537 618 33,000  Level FlightAware Transoceanic
12:54AM 49.3578 -37.3157 79° East 537 618 33,000  Level FlightAware Transoceanic
12:55AM 49.3848 -37.0904 80° East 537 618 33,000  Level FlightAware Transoceanic
12:56AM 49.4113 -36.8647 80° East 537 618 33,000  Level FlightAware Transoceanic
12:57AM 49.4374 -36.6388 80° East 537 618 33,000  Level FlightAware Transoceanic
12:58AM 49.4631 -36.4127 80° East 537 618 33,000  Level FlightAware Transoceanic
12:59AM 49.4883 -36.1864 80° East 537 618 33,000  Level FlightAware Transoceanic
01:00AM 49.5131 -35.9598 81° East 537 618 33,000  Level FlightAware Transoceanic
01:01AM 49.5375 -35.7330 81° East 537 618 33,000  Level FlightAware Transoceanic
01:02AM 49.5614 -35.5059 81° East 537 618 33,000  Level FlightAware Transoceanic
01:03AM 49.5848 -35.2787 81° East 537 618 33,000  Level FlightAware Transoceanic
01:04AM 49.6078 -35.0512 81° East 537 618 33,000  Level FlightAware Transoceanic
01:05AM 49.6304 -34.8235 81° East 537 618 33,000  Level FlightAware Transoceanic
01:06AM 49.6525 -34.5956 82° East 537 618 33,000  Level FlightAware Transoceanic
01:07AM 49.6742 -34.3675 82° East 537 618 33,000  Level FlightAware Transoceanic
01:08AM 49.6954 -34.1393 82° East 537 618 33,000  Level FlightAware Transoceanic
01:09AM 49.7162 -33.9108 82° East 537 618 33,000  Level FlightAware Transoceanic
01:10AM 49.7365 -33.6821 82° East 537 618 33,000  Level FlightAware Transoceanic
01:11AM 49.7564 -33.4532 82° East 537 618 33,000  Level FlightAware Transoceanic
01:12AM 49.7758 -33.2241 83° East 537 618 33,000  Level FlightAware Transoceanic
01:13AM 49.7948 -32.9949 83° East 537 618 33,000  Level FlightAware Transoceanic
01:14AM 49.8133 -32.7654 83° East 537 618 33,000  Level FlightAware Transoceanic
01:15AM 49.8314 -32.5359 83° East 537 618 33,000  Level FlightAware Transoceanic
01:16AM 49.8490 -32.3061 83° East 537 618 33,000  Level FlightAware Transoceanic
01:17AM 49.8661 -32.0761 83° East 537 618 33,000  Level FlightAware Transoceanic
01:18AM 49.8828 -31.8461 84° East 537 618 33,000  Level FlightAware Transoceanic
01:19AM 49.8991 -31.6158 84° East 537 618 33,000  Level FlightAware Transoceanic
01:20AM 49.9149 -31.3854 84° East 537 618 33,000  Level FlightAware Transoceanic
01:21AM 49.9302 -31.1549 84° East 537 618 33,000  Level FlightAware Transoceanic
01:22AM 49.9451 -30.9242 84° East 537 618 33,000  Level FlightAware Transoceanic
01:23AM 49.9595 -30.6933 85° East 537 618 33,000  Level FlightAware Transoceanic
01:24AM 49.9735 -30.4623 85° East 537 618 33,000  Level FlightAware Transoceanic
01:25AM 49.9870 -30.2312 85° East 537 618 33,000  Level FlightAware Transoceanic
01:26AM 49.9995 -30.0080 85° East  Level FlightAware Approximate
01:27AM 50.0118 -29.7847 85° East  Level FlightAware Approximate
01:28AM 49.9883 -29.7929 95° East  Level FlightAware Approximate
01:29AM 49.9754 -29.5698 95° East  Level FlightAware Approximate
01:29AM 50.0000 -30.0000 95° East 537 618 33,000  Level ETMS Enhanced Traffic Management System
01:30AM 49.9619 -29.3468 95° East  Level FlightAware Approximate
01:31AM 49.9481 -29.1240 95° East  Level FlightAware Approximate
01:32AM 49.9339 -28.9013 96° East  Level FlightAware Approximate
01:33AM 49.9192 -28.6787 96° East  Level FlightAware Approximate
01:34AM 49.9041 -28.4562 96° East  Level FlightAware Approximate
01:35AM 49.8490 -27.6939 97° East 537 618 33,000  Level FlightAware Transoceanic
01:36AM 49.8314 -27.4641 97° East 537 618 33,000  Level FlightAware Transoceanic
01:37AM 49.8133 -27.2346 97° East 537 618 33,000  Level FlightAware Transoceanic
01:38AM 49.7948 -27.0051 97° East 537 618 33,000  Level FlightAware Transoceanic
01:39AM 49.7758 -26.7759 97° East 537 618 33,000  Level FlightAware Transoceanic
01:40AM 49.7564 -26.5468 98° East 537 618 33,000  Level FlightAware Transoceanic
01:41AM 49.7365 -26.3179 98° East 537 618 33,000  Level FlightAware Transoceanic
01:42AM 49.7162 -26.0893 98° East 537 618 33,000  Level FlightAware Transoceanic
01:43AM 49.6954 -25.8608 98° East 537 618 33,000  Level FlightAware Transoceanic
01:44AM 49.6742 -25.6325 98° East 537 618 33,000  Level FlightAware Transoceanic
01:45AM 49.6525 -25.4044 98° East 537 618 33,000  Level FlightAware Transoceanic
01:46AM 49.6304 -25.1765 99° East 537 618 33,000  Level FlightAware Transoceanic
01:47AM 49.6078 -24.9488 99° East 537 618 33,000  Level FlightAware Transoceanic
01:48AM 49.5848 -24.7213 99° East 537 618 33,000  Level FlightAware Transoceanic
01:49AM 49.5614 -24.4941 99° East 537 618 33,000  Level FlightAware Transoceanic
01:50AM 49.5375 -24.2670 99° East 537 618 33,000  Level FlightAware Transoceanic
01:51AM 49.5131 -24.0402 99° East 537 618 33,000  Level FlightAware Transoceanic
01:52AM 49.4883 -23.8136 100° East 537 618 33,000  Level FlightAware Transoceanic
01:53AM 49.4631 -23.5873 100° East 537 618 33,000  Level FlightAware Transoceanic
01:54AM 49.4374 -23.3612 100° East 537 618 33,000  Level FlightAware Transoceanic
01:55AM 49.4113 -23.1353 100° East 537 618 33,000  Level FlightAware Transoceanic
01:56AM 49.3848 -22.9097 100° East 537 618 33,000  Level FlightAware Transoceanic
01:57AM 49.3578 -22.6843 101° East 537 618 33,000  Level FlightAware Transoceanic
01:58AM 49.3303 -22.4591 101° East 537 618 33,000  Level FlightAware Transoceanic
01:59AM 49.3025 -22.2342 101° East 537 618 33,000  Level FlightAware Transoceanic
02:00AM 49.2742 -22.0096 101° East 537 618 33,000  Level FlightAware Transoceanic
02:01AM 49.2454 -21.7852 101° East 537 618 33,000  Level FlightAware Transoceanic
02:02AM 49.2163 -21.5611 101° East 537 618 33,000  Level FlightAware Transoceanic
02:03AM 49.1867 -21.3373 102° East 537 618 33,000  Level FlightAware Transoceanic
02:04AM 49.1566 -21.1137 102° East 537 618 33,000  Level FlightAware Transoceanic
02:05AM 49.1262 -20.8904 102° East 537 618 33,000  Level FlightAware Transoceanic
02:06AM 49.0953 -20.6674 102° East 537 618 33,000  Level FlightAware Transoceanic
02:07AM 49.0639 -20.4446 102° East 537 618 33,000  Level FlightAware Transoceanic
02:08AM 49.0322 -20.2222 102° East 537 618 33,000  Level FlightAware Transoceanic
02:09AM 49.0011 -20.0077 102° East  Level FlightAware Approximate
02:10AM 48.9696 -19.7936 103° East  Level FlightAware Approximate
02:11AM 48.9654 -19.8033 105° East  Level FlightAware Approximate
02:12AM 48.9278 -19.5916 105° East  Level FlightAware Approximate
02:13AM 48.8898 -19.3802 105° East  Level FlightAware Approximate
02:14AM 48.8514 -19.1691 105° East  Level FlightAware Approximate
02:15AM 48.8126 -18.9584 106° East  Level FlightAware Approximate
02:16AM 48.7735 -18.7480 106° East  Level FlightAware Approximate
02:17AM 48.7339 -18.5379 106° East  Level FlightAware Approximate
02:18AM 48.6940 -18.3281 106° East  Level FlightAware Approximate
02:19AM 48.6537 -18.1187 106° East  Level FlightAware Approximate
02:20AM 48.6130 -17.9097 106° East  Level FlightAware Approximate
02:21AM 48.5719 -17.7009 106° East  Level FlightAware Approximate
02:22AM 48.5305 -17.4926 107° East  Level FlightAware Approximate
02:23AM 48.4888 -17.2847 107° East  Level FlightAware Approximate
02:24AM 48.4466 -17.0771 107° East  Level FlightAware Approximate
02:25AM 48.4041 -16.8699 107° East  Level FlightAware Approximate
02:26AM 48.3611 -16.6630 107° East  Level FlightAware Approximate
02:27AM 48.3179 -16.4565 107° East  Level FlightAware Approximate
02:28AM 48.2742 -16.2503 108° East  Level FlightAware Approximate
02:29AM 48.2302 -16.0445 108° East  Level FlightAware Approximate
02:30AM 48.1858 -15.8390 108° East  Level FlightAware Approximate
02:31AM 48.1411 -15.6339 108° East  Level FlightAware Approximate
02:32AM 48.0960 -15.4291 108° East  Level FlightAware Approximate
02:33AM 48.0505 -15.2247 108° East  Level FlightAware Approximate
02:34AM 48.0047 -15.0207 108° East  Level FlightAware Approximate
02:35AM 47.9747 -14.8105 101° East  Level FlightAware Approximate
02:36AM 47.9463 -14.5997 101° East  Level FlightAware Approximate
02:37AM 47.9174 -14.3893 101° East  Level FlightAware Approximate
02:38AM 47.8881 -14.1790 102° East  Level FlightAware Approximate
02:39AM 47.8585 -13.9690 102° East  Level FlightAware Approximate
02:40AM 47.8285 -13.7593 102° East  Level FlightAware Approximate
02:41AM 47.7981 -13.5498 102° East  Level FlightAware Approximate
02:42AM 47.7673 -13.3405 102° East  Level FlightAware Approximate
02:43AM 47.7362 -13.1315 102° East  Level FlightAware Approximate
02:44AM 47.7047 -12.9227 103° East  Level FlightAware Approximate
02:45AM 47.6728 -12.7142 103° East  Level FlightAware Approximate
02:46AM 47.6405 -12.5059 103° East  Level FlightAware Approximate
02:47AM 47.6078 -12.2979 103° East  Level FlightAware Approximate
02:48AM 47.5748 -12.0902 103° East  Level FlightAware Approximate
02:49AM 47.5413 -11.8827 103° East  Level FlightAware Approximate
02:50AM 47.5085 -11.6751 103° East  Level FlightAware Approximate
02:51AM 47.4756 -11.4677 103° East  Level FlightAware Approximate
02:52AM 47.4422 -11.2606 103° East  Level FlightAware Approximate
02:53AM 47.4086 -11.0538 103° East  Level FlightAware Approximate
02:54AM 47.3745 -10.8472 104° East  Level FlightAware Approximate
02:55AM 47.3397 -10.6410 104° East  Level FlightAware Approximate
02:56AM 47.3044 -10.4351 104° East  Level FlightAware Approximate
02:57AM 47.2688 -10.2295 104° East  Level FlightAware Approximate
02:58AM 47.2328 -10.0242 104° East  Level FlightAware Approximate
02:59AM 47.1964 -9.8191 105° East  Level FlightAware Approximate
03:00AM 47.1597 -9.6144 105° East  Level FlightAware Approximate
03:01AM 47.1226 -9.4099 105° East  Level FlightAware Approximate
03:02AM 47.0851 -9.2057 105° East  Level FlightAware Approximate
03:03AM 47.0473 -9.0018 105° East  Level FlightAware Approximate
03:04AM 47.0091 -8.7982 105° East  Level FlightAware Approximate
03:04AM 47.0020 -7.9780 90° East 548 631 33,000  Level FlightAware
03:05AM 47.0004 -8.5889 90° East  Level FlightAware Approximate
03:05AM 46.9870 -7.8490 100° East 550 633 33,000  Level FlightAware
03:06AM 46.9670 -7.7080 102° East 550 633 33,000  Level FlightAware
03:06AM 46.9500 -7.5870 102° East 548 631 33,000  Level FlightAware
03:07AM 46.9340 -7.4660 101° East 546 628 33,000  Level FlightAware
03:08AM 46.9110 -7.3040 102° East 544 626 33,000  Level FlightAware
03:08AM 46.8930 -7.1830 102° East 543 625 33,000  Level FlightAware
03:09AM 46.8750 -7.0580 102° East 543 625 33,000  Level FlightAware
03:09AM 46.8560 -6.9270 102° East 542 624 33,000  Level FlightAware
03:10AM 46.8380 -6.8030 102° East 542 624 33,000  Level FlightAware
03:10AM 46.8220 -6.6960 102° East 543 625 33,000  Level FlightAware
03:11AM 46.8010 -6.5540 102° East 544 626 33,000  Level FlightAware
03:12AM 46.7730 -6.3670 102° East 545 627 33,000  Level FlightAware
03:12AM 46.7540 -6.2380 102° East 545 627 33,000  Level FlightAware
03:13AM 46.7360 -6.1210 103° East 546 628 33,000  Level FlightAware
03:14AM 46.7160 -5.9920 103° East 547 629 33,000  Level FlightAware
03:14AM 46.6950 -5.8610 103° East 548 631 33,000  Level FlightAware
03:15AM 46.6770 -5.7420 102° East 549 632 33,000  Level FlightAware
03:15AM 46.6560 -5.6120 103° East 549 632 33,000 60 Level FlightAware
03:16AM 46.6360 -5.4830 103° East 548 631 33,100 240 Climbing FlightAware
03:17AM 46.6170 -5.3680 103° East 543 625 33,300 480 Climbing FlightAware
03:17AM 46.5960 -5.2380 103° East 541 623 33,700 540 Climbing FlightAware
03:18AM 46.5750 -5.1120 104° East 543 625 34,000 420 Climbing FlightAware
03:18AM 46.5570 -5.0000 103° East 545 627 34,200 420 Climbing FlightAware
03:19AM 46.5360 -4.8720 103° East 542 624 34,500 480 Climbing FlightAware
03:19AM 46.5130 -4.7360 104° East 528 608 34,800 420 Climbing FlightAware
03:20AM 46.4950 -4.6260 103° East 534 615 35,000 120 Climbing FlightAware
03:21AM 46.4730 -4.4990 104° East 548 631 35,000  Level FlightAware
03:21AM 46.4510 -4.3740 104° East 551 634 35,000  Level FlightAware
03:22AM 46.4290 -4.2440 104° East 549 632 35,000  Level FlightAware
03:22AM 46.4090 -4.1310 104° East 547 629 35,000  Level FlightAware
03:23AM 46.3870 -4.0020 104° East 547 629 35,000  Level FlightAware
03:24AM 46.3640 -3.8730 104° East 547 629 35,000  Level FlightAware
03:24AM 46.3420 -3.7480 104° East 546 628 35,000  Level FlightAware
03:25AM 46.3210 -3.6340 105° East 544 626 35,000  Level FlightAware
03:25AM 46.2990 -3.5120 105° East 543 625 35,000  Level FlightAware
03:26AM 46.2780 -3.3940 104° East 539 620 35,000  Level FlightAware
03:26AM 46.2560 -3.2720 105° East 536 617 35,000  Level FlightAware
03:27AM 46.2310 -3.1400 105° East 532 612 35,000  Level FlightAware
03:28AM 46.2090 -3.0230 105° East 530 610 35,000  Level FlightAware
03:28AM 46.1880 -2.9110 105° East 528 608 35,000  Level FlightAware
03:29AM 46.1650 -2.7870 105° East 528 608 35,000  Level FlightAware
03:29AM 46.1420 -2.6650 105° East 526 605 35,000  Level FlightAware
03:30AM 46.1180 -2.5420 106° East 524 603 35,000  Level FlightAware
03:31AM 46.0980 -2.4360 105° East 524 603 35,000  Level FlightAware
03:31AM 46.0740 -2.3130 106° East 522 601 35,000  Level FlightAware
03:32AM 46.0520 -2.1910 105° East 522 601 35,000  Level FlightAware
03:32AM 46.0370 -2.0840 101° East 523 602 35,000  Level FlightAware
03:33AM 46.0220 -1.9600 100° East 522 601 35,000  Level FlightAware
03:33AM 46.0090 -1.8400 99° East 520 598 35,000  Level FlightAware
03:34AM 45.9920 -1.6880 99° East 519 597 35,000  Level FlightAware
03:35AM 45.9780 -1.5550 99° East 518 596 35,000  Level FlightAware
03:35AM 45.9650 -1.4390 99° East 517 595 35,000  Level FlightAware
03:36AM 45.9530 -1.3310 99° East 517 595 35,000  Level FlightAware
03:37AM 45.9410 -1.2260 99° East 517 595 35,000  Level FlightAware
03:37AM 45.9350 -1.0440 93° East 530 610 35,000  Level FlightAware
03:38AM 45.9480 -0.8500 84° East 530 610 35,000  Level FlightAware
03:39AM 45.9550 -0.7440 85° East 531 611 35,000  Level FlightAware
03:39AM 45.9630 -0.6230 85° East 531 611 35,000  Level FlightAware
03:40AM 45.9710 -0.5050 84° East 529 609 35,000  Level FlightAware
03:41AM 45.9770 -0.3910 86° East 529 609 35,000  Level FlightAware
03:41AM 45.9850 -0.2540 85° East 528 608 35,000  Level FlightAware
03:42AM 45.9930 -0.1270 85° East 528 608 35,000  Level FlightAware
03:42AM 45.9990 -0.0050 86° East 528 608 35,000  Level FlightAware
03:43AM 46.0050 0.1170 86° East 527 606 35,000  Level FlightAware
03:43AM 46.0060 0.2400 89° East 522 601 35,000  Level FlightAware
03:44AM 46.0050 0.3740 91° East 522 601 35,000  Level FlightAware
03:45AM 46.0040 0.4990 91° East 521 600 35,000  Level FlightAware
03:45AM 45.9960 0.6350 95° East 514 592 35,000  Level FlightAware
03:46AM 45.9750 0.7580 104° East 508 585 35,000  Level FlightAware
03:47AM 45.9490 0.8740 108° East 510 587 35,000  Level FlightAware
03:47AM 45.9250 0.9850 107° East 512 589 35,000  Level FlightAware
03:48AM 45.9000 1.0970 108° East 515 593 35,000  Level FlightAware
03:48AM 45.8730 1.2130 108° East 515 593 35,000  Level FlightAware
03:49AM 45.8470 1.3280 108° East 514 592 35,000  Level FlightAware
03:50AM 45.8220 1.4390 108° East 512 589 35,000  Level FlightAware
03:50AM 45.7970 1.5490 108° East 511 588 35,000  Level FlightAware
03:51AM 45.7700 1.6650 108° East 510 587 35,000  Level FlightAware
03:51AM 45.7430 1.7800 109° East 508 585 35,000  Level FlightAware
03:52AM 45.7210 1.8730 109° East 509 586 35,000  Level FlightAware
03:52AM 45.6930 1.9950 108° East 510 587 35,000  Level FlightAware
03:53AM 45.6650 2.1120 109° East 514 592 35,000  Level FlightAware
03:54AM 45.6400 2.2170 109° East 517 595 35,000  Level FlightAware
03:54AM 45.6040 2.3700 109° East 522 601 35,000  Level FlightAware
03:55AM 45.5770 2.4850 109° East 524 603 35,000  Level FlightAware
03:55AM 45.5500 2.5960 109° East 527 606 35,000  Level FlightAware
03:56AM 45.5240 2.7020 109° East 530 610 35,000  Level FlightAware
03:57AM 45.4990 2.8090 108° East 531 611 35,000 120 Level FlightAware
03:57AM 45.4630 2.9540 109° East 535 616 35,200 660 Climbing FlightAware
03:58AM 45.4370 3.0610 109° East 537 618 35,800 1,020 Climbing FlightAware
03:58AM 45.4080 3.1780 109° East 542 624 36,400 900 Climbing FlightAware
03:59AM 45.3780 3.3000 109° East 545 627 36,900 480 Climbing FlightAware
04:00AM 45.3500 3.4130 109° East 550 633 37,000 60 Climbing FlightAware
04:00AM 45.3200 3.5310 110° East 549 632 37,000  Level FlightAware
04:01AM 45.2850 3.6420 114° Southeast 534 615 37,000  Level FlightAware
04:01AM 45.2410 3.7560 119° Southeast 529 609 37,000  Level FlightAware
04:02AM 45.1990 3.8580 120° Southeast 527 606 37,000  Level FlightAware
04:02AM 45.1570 3.9620 120° Southeast 528 608 37,000  Level FlightAware
04:03AM 45.1140 4.0700 119° Southeast 530 610 37,000  Level FlightAware
04:04AM 45.0720 4.1750 119° Southeast 530 610 37,000  Level FlightAware
04:04AM 45.0270 4.2870 120° Southeast 531 611 37,000  Level FlightAware
04:05AM 44.9870 4.3850 120° Southeast 533 613 37,000  Level FlightAware
04:05AM 44.9440 4.4920 120° Southeast 535 616 37,000  Level FlightAware
04:06AM 44.9020 4.5960 120° Southeast 538 619 37,000  Level FlightAware
04:07AM 44.8510 4.7200 120° Southeast 541 623 37,000  Level FlightAware
04:07AM 44.8040 4.8360 120° Southeast 543 625 37,000  Level FlightAware
04:08AM 44.7570 4.9430 122° Southeast 542 624 37,000  Level FlightAware
04:08AM 44.7140 5.0400 122° Southeast 543 625 37,000  Level FlightAware
04:09AM 44.6660 5.1460 122° Southeast 545 627 37,000  Level FlightAware
04:10AM 44.6170 5.2570 122° Southeast 546 628 37,000  Level FlightAware
04:10AM 44.5750 5.3490 123° Southeast 544 626 37,000  Level FlightAware
04:11AM 44.5270 5.4570 122° Southeast 539 620 37,000  Level FlightAware
04:11AM 44.4710 5.5820 122° Southeast 537 618 37,000  Level FlightAware
04:12AM 44.4290 5.6730 123° Southeast 536 617 37,000  Level FlightAware
04:13AM 44.3820 5.7780 122° Southeast 536 617 37,000  Level FlightAware
04:13AM 44.3340 5.8830 123° Southeast 536 617 37,000  Level FlightAware
04:14AM 44.2840 5.9910 123° Southeast 533 613 37,000  Level FlightAware
04:14AM 44.2420 6.0840 122° Southeast 535 616 37,000  Level FlightAware
04:15AM 44.1950 6.1860 123° Southeast 535 616 37,000  Level FlightAware
04:16AM 44.1460 6.2920 123° Southeast 536 617 37,000  Level FlightAware
04:16AM 44.1030 6.3830 123° Southeast 535 616 37,000  Level FlightAware
04:17AM 44.0530 6.4910 123° Southeast 538 619 37,000  Level FlightAware
04:17AM 44.0080 6.5890 123° Southeast 540 621 37,000  Level FlightAware
04:18AM 43.9590 6.6940 123° Southeast 541 623 37,000  Level FlightAware
04:18AM 43.9130 6.7910 123° Southeast 544 626 37,000  Level FlightAware
04:19AM 43.8600 6.9020 123° Southeast 546 628 37,000  Level FlightAware
04:20AM 43.8100 7.0090 123° Southeast 545 627 37,000  Level FlightAware
04:20AM 43.7670 7.0970 124° Southeast 544 626 37,000  Level FlightAware
04:21AM 43.7190 7.1990 123° Southeast 544 626 37,000  Level FlightAware
04:21AM 43.6650 7.3100 124° Southeast 544 626 37,000  Level FlightAware
04:22AM 43.6180 7.4090 123° Southeast 543 625 37,000  Level FlightAware
04:22AM 43.5740 7.5000 124° Southeast 540 621 37,000  Level FlightAware
04:23AM 43.5230 7.6050 124° Southeast 537 618 37,000  Level FlightAware
04:24AM 43.4640 7.7270 124° Southeast 535 616 37,000  Level FlightAware
04:24AM 43.4200 7.8170 124° Southeast 533 613 37,000  Level FlightAware
04:25AM 43.3680 7.9240 124° Southeast 532 612 37,000  Level FlightAware
04:26AM 43.3210 8.0180 124° Southeast 530 610 37,000  Level FlightAware
04:26AM 43.2760 8.1260 120° Southeast 530 610 37,000  Level FlightAware
04:27AM 43.2350 8.2280 119° Southeast 528 608 37,000  Level FlightAware
04:27AM 43.1940 8.3310 119° Southeast 527 606 37,000  Level FlightAware
04:28AM 43.1530 8.4330 119° Southeast 524 603 37,000  Level FlightAware
04:28AM 43.1140 8.5320 118° Southeast 522 601 37,000  Level FlightAware
04:29AM 43.0740 8.6290 119° Southeast 519 597 37,000  Level FlightAware
04:30AM 43.0250 8.7510 119° Southeast 516 594 37,000  Level FlightAware
04:30AM 42.9840 8.8540 119° Southeast 513 590 37,000  Level FlightAware
04:31AM 42.9420 8.9540 120° Southeast 512 589 37,000  Level FlightAware
04:31AM 42.9050 9.0440 119° Southeast 513 590 37,000  Level FlightAware
04:32AM 42.8610 9.1530 119° Southeast 515 593 37,000  Level FlightAware
04:33AM 42.8230 9.2430 120° Southeast 515 593 37,000  Level FlightAware
04:33AM 42.7820 9.3430 119° Southeast 515 593 37,000  Level FlightAware
04:34AM 42.7410 9.4580 116° Southeast 515 593 37,000  Level FlightAware
04:34AM 42.7110 9.5480 114° Southeast 513 590 37,000  Level FlightAware
04:35AM 42.6740 9.6620 114° Southeast 514 592 37,000  Level FlightAware
04:36AM 42.6420 9.7560 115° Southeast 511 588 37,000  Level FlightAware
04:36AM 42.6040 9.8660 115° Southeast 509 586 37,000  Level FlightAware
04:37AM 42.5720 9.9560 116° Southeast 507 583 37,000  Level FlightAware
04:37AM 42.5360 10.0610 115° Southeast 505 581 37,000  Level FlightAware
04:38AM 42.5030 10.1530 116° Southeast 506 582 37,000  Level FlightAware
04:39AM 42.4610 10.2720 116° Southeast 507 583 37,000  Level FlightAware
04:39AM 42.4310 10.3590 115° Southeast 507 583 37,000  Level FlightAware
04:40AM 42.3940 10.4620 116° Southeast 508 585 37,000  Level FlightAware
04:40AM 42.3570 10.5660 116° Southeast 508 585 37,000  Level FlightAware
04:41AM 42.3250 10.6570 115° Southeast 509 586 37,000  Level FlightAware
04:41AM 42.2880 10.7600 116° Southeast 509 586 37,000  Level FlightAware
04:42AM 42.2530 10.8580 116° Southeast 509 586 37,000  Level FlightAware
04:43AM 42.2150 10.9640 116° Southeast 509 586 37,000  Level FlightAware
04:43AM 42.1730 11.0740 117° Southeast 507 583 37,000  Level FlightAware
04:44AM 42.1220 11.1570 130° Southeast 505 581 37,000  Level FlightAware
04:44AM 42.0640 11.2490 130° Southeast 504 580 37,000  Level FlightAware
04:45AM 42.0160 11.3280 129° Southeast 504 580 37,000  Level FlightAware
04:46AM 41.9630 11.4100 131° Southeast 504 580 37,000  Level FlightAware
04:46AM 41.9030 11.5020 131° Southeast 506 582 37,000  Level FlightAware
04:47AM 41.8470 11.5870 131° Southeast 506 582 37,000  Level FlightAware
04:47AM 41.7980 11.6630 131° Southeast 506 582 37,000  Level FlightAware
04:48AM 41.7440 11.7440 132° Southeast 507 583 37,000  Level FlightAware
04:49AM 41.6900 11.8270 131° Southeast 507 583 37,000  Level FlightAware
04:49AM 41.6330 11.9120 132° Southeast 509 586 37,000  Level FlightAware
04:50AM 41.5770 11.9970 131° Southeast 509 586 37,000  Level FlightAware
04:50AM 41.5270 12.0720 132° Southeast 510 587 37,000  Level FlightAware
04:51AM 41.4700 12.1570 132° Southeast 512 589 37,000  Level FlightAware
04:51AM 41.4160 12.2360 132° Southeast 513 590 37,000  Level FlightAware
04:52AM 41.3550 12.3270 132° Southeast 513 590 37,000  Level FlightAware
04:53AM 41.3050 12.4000 132° Southeast 511 588 37,000  Level FlightAware
04:53AM 41.2480 12.4850 132° Southeast 510 587 37,000  Level FlightAware
04:54AM 41.1900 12.5700 132° Southeast 509 586 37,000  Level FlightAware
04:54AM 41.1330 12.6540 132° Southeast 508 585 37,000  Level FlightAware
04:55AM 41.0840 12.7260 132° Southeast 504 580 37,000  Level FlightAware
04:56AM 41.0240 12.8140 132° Southeast 501 577 37,000  Level FlightAware
04:56AM 40.9680 12.8950 132° Southeast 500 575 37,000  Level FlightAware
04:57AM 40.9230 12.9670 130° Southeast 499 574 37,000  Level FlightAware
04:57AM 40.8790 13.0600 122° Southeast 500 575 37,000  Level FlightAware
04:58AM 40.8380 13.1530 120° Southeast 500 575 37,000  Level FlightAware
04:58AM 40.7970 13.2480 120° Southeast 501 577 37,000  Level FlightAware
04:59AM 40.7600 13.3330 120° Southeast 501 577 37,000  Level FlightAware
05:00AM 40.7190 13.4270 120° Southeast 502 578 37,000  Level FlightAware
05:00AM 40.6770 13.5220 120° Southeast 502 578 37,000  Level FlightAware
05:01AM 40.6340 13.6170 121° Southeast 502 578 37,000  Level FlightAware
05:01AM 40.5950 13.7070 120° Southeast 502 578 37,000  Level FlightAware
05:02AM 40.5520 13.8020 121° Southeast 503 579 37,000  Level FlightAware
05:03AM 40.5080 13.9010 120° Southeast 503 579 37,000  Level FlightAware
05:03AM 40.4730 13.9780 121° Southeast 502 578 37,000  Level FlightAware
05:04AM 40.4300 14.0730 121° Southeast 501 577 37,000  Level FlightAware
05:04AM 40.3880 14.1670 120° Southeast 502 578 37,000  Level FlightAware
05:05AM 40.3440 14.2640 121° Southeast 501 577 37,000  Level FlightAware
05:05AM 40.3070 14.3470 120° Southeast 500 575 37,000  Level FlightAware
05:06AM 40.2650 14.4390 121° Southeast 499 574 37,000  Level FlightAware
05:07AM 40.2150 14.5480 121° Southeast 498 573 37,000  Level FlightAware
05:07AM 40.1720 14.6410 121° Southeast 497 572 37,000  Level FlightAware
05:08AM 40.1320 14.7280 121° Southeast 496 571 37,000  Level FlightAware
05:08AM 40.0920 14.8150 121° Southeast 494 568 37,000  Level FlightAware
05:09AM 40.0570 14.8900 121° Southeast 494 568 37,000  Level FlightAware
05:10AM 40.0040 15.0060 121° Southeast 495 570 37,000  Level FlightAware
05:10AM 39.9610 15.0960 122° Southeast 495 570 37,000  Level FlightAware
05:11AM 39.9390 15.1440 121° Southeast 496 571 37,000  Level FlightAware
05:11AM 39.8830 15.2650 121° Southeast 496 571 37,000  Level FlightAware
05:12AM 39.8400 15.3570 121° Southeast 495 570 37,000 240 Level FlightAware
05:13AM 39.8050 15.4450 117° Southeast 492 566 37,300 480 Climbing FlightAware
05:13AM 39.7700 15.5430 115° Southeast 491 565 37,600 480 Climbing FlightAware
05:14AM 39.7400 15.6310 114° Southeast 494 568 37,900 480 Climbing FlightAware
05:14AM 39.7040 15.7350 114° Southeast 501 577 38,200 360 Climbing FlightAware
05:15AM 39.6720 15.8290 114° Southeast 502 578 38,400 360 Climbing FlightAware
05:15AM 39.6390 15.9280 113° Southeast 497 572 38,700 420 Climbing FlightAware
05:16AM 39.6070 16.0210 114° Southeast 495 570 38,900 240 Climbing FlightAware
05:17AM 39.5770 16.1080 114° Southeast 497 572 39,000 60 Climbing FlightAware
05:17AM 39.5430 16.2070 114° Southeast 498 573 39,000  Level FlightAware
05:18AM 39.5090 16.3040 114° Southeast 498 573 39,000  Level FlightAware
05:18AM 39.4760 16.3990 114° Southeast 499 574 39,000  Level FlightAware
05:19AM 39.4420 16.4990 114° Southeast 499 574 39,000  Level FlightAware
05:20AM 39.4060 16.6000 115° Southeast 501 577 39,000  Level FlightAware
05:20AM 39.3760 16.6860 114° Southeast 502 578 39,000  Level FlightAware
05:21AM 39.3410 16.7860 114° Southeast 503 579 39,000  Level FlightAware
05:21AM 39.3090 16.8770 114° Southeast 504 580 39,000  Level FlightAware
05:22AM 39.2760 16.9690 115° Southeast 505 581 39,000  Level FlightAware
05:22AM 39.2400 17.0720 114° Southeast 506 582 39,000  Level FlightAware
05:23AM 39.2030 17.1770 114° Southeast 506 582 39,000  Level FlightAware
05:24AM 39.1720 17.2620 115° Southeast 505 581 39,000  Level FlightAware
05:24AM 39.1360 17.3620 115° Southeast 504 580 39,000  Level FlightAware
05:25AM 39.1010 17.4600 115° Southeast 504 580 39,000  Level FlightAware
05:25AM 39.0690 17.5480 115° Southeast 504 580 39,000  Level FlightAware
05:26AM 39.0340 17.6450 115° Southeast 503 579 39,000  Level FlightAware
05:27AM 38.9990 17.7420 115° Southeast 502 578 39,000  Level FlightAware
05:27AM 38.9630 17.8390 115° Southeast 503 579 39,000  Level FlightAware
05:28AM 38.9310 17.9260 115° Southeast 502 578 39,000  Level FlightAware
05:28AM 38.8970 18.0210 115° Southeast 502 578 39,000  Level FlightAware
05:29AM 38.8600 18.1210 115° Southeast 503 579 39,000  Level FlightAware
05:29AM 38.8240 18.2180 115° Southeast 503 579 39,000  Level FlightAware
05:30AM 38.7900 18.3100 115° Southeast 503 579 39,000  Level FlightAware
05:31AM 38.7550 18.4050 115° Southeast 503 579 39,000  Level FlightAware
05:31AM 38.7180 18.5040 116° Southeast 504 580 39,000  Level FlightAware
05:32AM 38.6870 18.5850 116° Southeast 505 581 39,000  Level FlightAware
05:32AM 38.6500 18.6880 115° Southeast 505 581 39,000  Level FlightAware
05:33AM 38.6190 18.7850 112° Southeast 505 581 39,000  Level FlightAware
05:34AM 38.5930 18.8710 111° Southeast 505 581 39,000  Level FlightAware
05:34AM 38.5670 18.9630 110° East 503 579 39,000  Level FlightAware
05:35AM 38.5340 19.0750 111° Southeast 506 582 39,000  Level FlightAware
05:35AM 38.5050 19.1740 110° East 506 582 39,000  Level FlightAware
05:36AM 38.4790 19.2590 111° Southeast 506 582 39,000  Level FlightAware
05:36AM 38.4500 19.3550 111° Southeast 505 581 39,000  Level FlightAware
05:37AM 38.4160 19.4680 111° Southeast 504 580 39,000  Level FlightAware
05:38AM 38.3870 19.5630 111° Southeast 504 580 39,000  Level FlightAware
05:38AM 38.3620 19.6480 111° Southeast 502 578 39,000  Level FlightAware
05:39AM 38.3320 19.7430 112° Southeast 505 581 39,000  Level FlightAware
05:39AM 38.2980 19.8560 111° Southeast 504 580 39,000  Level FlightAware
05:40AM 38.2690 19.9510 111° Southeast 505 581 39,000  Level FlightAware
05:40AM 38.2430 20.0360 111° Southeast 506 582 39,000  Level FlightAware
05:41AM 38.2130 20.1330 111° Southeast 508 585 39,000  Level FlightAware
05:42AM 38.1780 20.2460 111° Southeast 510 587 39,000  Level FlightAware
05:42AM 38.1520 20.3290 112° Southeast 512 589 39,000  Level FlightAware
05:43AM 38.1210 20.4280 112° Southeast 512 589 39,000  Level FlightAware
05:43AM 38.0860 20.5390 112° Southeast 514 592 39,000  Level FlightAware
05:44AM 38.0590 20.6260 111° Southeast 517 595 39,000  Level FlightAware
05:45AM 38.0290 20.7200 112° Southeast 517 595 39,000  Level FlightAware
05:45AM 37.9930 20.8350 112° Southeast 518 596 39,000  Level FlightAware
05:46AM 37.9670 20.9190 111° Southeast 518 596 39,000  Level FlightAware
05:46AM 37.9350 21.0190 112° Southeast 518 596 39,000  Level FlightAware
05:47AM 37.8990 21.1310 112° Southeast 519 597 39,000  Level FlightAware
05:47AM 37.8720 21.2160 112° Southeast 519 597 39,000  Level FlightAware
05:48AM 37.8440 21.3020 112° Southeast 519 597 39,000  Level FlightAware
05:49AM 37.8030 21.4300 112° Southeast 520 598 39,000  Level FlightAware
05:49AM 37.7720 21.5250 112° Southeast 519 597 39,000  Level FlightAware
05:50AM 37.7420 21.6170 112° Southeast 520 598 39,000  Level FlightAware
05:50AM 37.7080 21.7210 112° Southeast 521 600 39,000  Level FlightAware
05:51AM 37.6750 21.8220 112° Southeast 521 600 39,000  Level FlightAware
05:52AM 37.6420 21.9220 113° Southeast 522 601 39,000  Level FlightAware
05:52AM 37.6120 22.0130 113° Southeast 524 603 39,000  Level FlightAware
05:53AM 37.5780 22.1150 113° Southeast 524 603 39,000  Level FlightAware
05:53AM 37.5450 22.2140 113° Southeast 524 603 39,000  Level FlightAware
05:54AM 37.5100 22.3200 113° Southeast 526 605 39,000  Level FlightAware
05:55AM 37.4800 22.4090 113° Southeast 526 605 39,000  Level FlightAware
05:55AM 37.4470 22.5070 113° Southeast 527 606 39,000  Level FlightAware
05:56AM 37.4110 22.6140 113° Southeast 528 608 39,000  Level FlightAware
05:56AM 37.3800 22.7050 113° Southeast 528 608 39,000  Level FlightAware
05:57AM 37.3460 22.8030 114° Southeast 528 608 39,000  Level FlightAware
05:57AM 37.3100 22.9090 113° Southeast 528 608 39,000  Level FlightAware
05:58AM 37.2770 23.0050 113° Southeast 529 609 39,000  Level FlightAware
05:59AM 37.2430 23.1040 113° Southeast 530 610 39,000  Level FlightAware
05:59AM 37.2100 23.2000 113° Southeast 530 610 39,000  Level FlightAware
06:00AM 37.1730 23.3060 114° Southeast 532 612 39,000  Level FlightAware
06:00AM 37.1420 23.3980 113° Southeast 534 615 39,000  Level FlightAware
06:01AM 37.1060 23.4980 114° Southeast 536 617 39,000  Level FlightAware
06:02AM 37.0710 23.6000 113° Southeast 536 617 39,000  Level FlightAware
06:02AM 37.0360 23.6990 114° Southeast 539 620 39,000  Level FlightAware
06:03AM 37.0030 23.7930 114° Southeast 539 620 39,000  Level FlightAware
06:03AM 36.9660 23.8980 114° Southeast 540 621 39,000  Level FlightAware
06:04AM 36.9300 23.9980 114° Southeast 541 623 39,000  Level FlightAware
06:04AM 36.8940 24.1010 114° Southeast 540 621 39,000  Level FlightAware
06:05AM 36.8610 24.1920 114° Southeast 538 619 39,000  Level FlightAware
06:06AM 36.8260 24.2920 114° Southeast 538 619 39,000  Level FlightAware
06:06AM 36.7880 24.3970 114° Southeast 538 619 39,000  Level FlightAware
06:07AM 36.7510 24.5000 114° Southeast 538 619 39,000  Level FlightAware
06:07AM 36.7180 24.5900 115° Southeast 538 619 39,000  Level FlightAware
06:08AM 36.6840 24.6840 114° Southeast 537 618 39,000  Level FlightAware
06:09AM 36.6450 24.7920 114° Southeast 537 618 39,000  Level FlightAware
06:09AM 36.6080 24.8920 115° Southeast 539 620 39,000  Level FlightAware
06:10AM 36.5750 24.9840 114° Southeast 539 620 39,000  Level FlightAware
06:10AM 36.5350 25.0920 115° Southeast 539 620 39,000  Level FlightAware
06:11AM 36.5000 25.1880 114° Southeast 538 619 39,000  Level FlightAware
06:11AM 36.4650 25.2800 115° Southeast 537 618 39,000  Level FlightAware
06:12AM 36.4290 25.3770 115° Southeast 536 617 39,000  Level FlightAware
06:13AM 36.3900 25.4830 115° Southeast 536 617 39,000  Level FlightAware
06:13AM 36.3540 25.5810 114° Southeast 536 617 39,000  Level FlightAware
06:14AM 36.3180 25.6760 115° Southeast 537 618 39,000  Level FlightAware
06:14AM 36.2820 25.7710 115° Southeast 538 619 39,000  Level FlightAware
06:15AM 36.2490 25.8600 115° Southeast 539 620 39,000  Level FlightAware
06:16AM 36.2090 25.9650 115° Southeast 539 620 39,000  Level FlightAware
06:16AM 36.1710 26.0660 115° Southeast 540 621 39,000  Level FlightAware
06:17AM 36.1320 26.1670 116° Southeast 540 621 39,000  Level FlightAware
06:17AM 36.0980 26.2570 115° Southeast 541 623 39,000  Level FlightAware
06:18AM 36.0600 26.3580 115° Southeast 541 623 39,000  Level FlightAware
06:18AM 36.0210 26.4590 115° Southeast 543 625 39,000  Level FlightAware
06:19AM 35.9820 26.5600 115° Southeast 543 625 39,000  Level FlightAware
06:20AM 35.9470 26.6500 116° Southeast 543 625 39,000  Level FlightAware
06:20AM 35.9080 26.7510 115° Southeast 545 627 39,000  Level FlightAware
06:21AM 35.8580 26.8800 116° Southeast 543 625 39,000  Level FlightAware
06:22AM 35.8200 26.9780 116° Southeast 544 626 39,000  Level FlightAware
06:22AM 35.7850 27.0690 115° Southeast 544 626 39,000  Level FlightAware
06:23AM 35.7440 27.1730 116° Southeast 544 626 39,000  Level FlightAware
06:23AM 35.7070 27.2660 116° Southeast 548 631 39,000  Level FlightAware
06:24AM 35.6710 27.3620 115° Southeast 548 631 39,000  Level FlightAware
06:25AM 35.6180 27.4940 116° Southeast 551 634 39,000  Level FlightAware
06:25AM 35.5850 27.5810 115° Southeast 551 634 39,000  Level FlightAware
06:26AM 35.5520 27.6680 115° Southeast 551 634 39,000  Level FlightAware
06:27AM 35.5190 27.7550 115° Southeast 551 634 39,000  Level FlightAware
06:27AM 35.4500 27.9140 118° Southeast 553 636 39,000  Level FlightAware
06:28AM 35.4010 28.0360 116° Southeast 553 636 39,000  Level FlightAware
06:29AM 35.3540 28.1510 117° Southeast 551 634 39,000  Level FlightAware
06:29AM 35.3070 28.2670 116° Southeast 550 633 39,000  Level FlightAware
06:30AM 35.2670 28.3660 116° Southeast 549 632 39,000  Level FlightAware
06:30AM 35.2300 28.4580 116° Southeast 546 628 39,000  Level FlightAware
06:31AM 35.1900 28.5560 117° Southeast 547 629 39,000  Level FlightAware
06:32AM 35.1500 28.6540 117° Southeast 547 629 39,000  Level FlightAware
06:32AM 35.1090 28.7530 117° Southeast 546 628 39,000  Level FlightAware
06:33AM 35.0690 28.8520 116° Southeast 546 628 39,000  Level FlightAware
06:33AM 35.0230 28.9600 117° Southeast 541 623 39,000  Level FlightAware
06:34AM 34.9870 29.0510 116° Southeast 541 623 39,000  Level FlightAware
06:35AM 34.9530 29.1350 116° Southeast 541 623 39,000  Level FlightAware
06:35AM 34.8950 29.2700 118° Southeast 539 620 39,000  Level FlightAware
06:36AM 34.8610 29.3510 117° Southeast 538 619 39,000  Level FlightAware
06:36AM 34.8220 29.4450 117° Southeast 538 619 39,000  Level FlightAware
06:37AM 34.7810 29.5420 117° Southeast 537 618 39,000  Level FlightAware
06:38AM 34.7350 29.6480 118° Southeast 534 615 39,000  Level FlightAware
06:38AM 34.6980 29.7260 120° Southeast 528 608 39,000  Level FlightAware
06:39AM 34.6550 29.8180 120° Southeast 526 605 39,000  Level FlightAware
06:40AM 34.6080 29.9190 119° Southeast 526 605 39,000  Level FlightAware
06:40AM 34.5560 30.0260 121° Southeast 526 605 39,000  Level FlightAware
06:41AM 34.5080 30.1280 120° Southeast 523 602 39,000  Level FlightAware
06:41AM 34.4660 30.2180 119° Southeast 522 601 39,000  Level FlightAware
06:42AM 34.4230 30.3090 120° Southeast 521 600 39,000  Level FlightAware
06:43AM 34.3820 30.3960 120° Southeast 521 600 39,000  Level FlightAware
06:43AM 34.3390 30.4860 120° Southeast 522 601 39,000  Level FlightAware
06:44AM 34.2970 30.5740 120° Southeast 521 600 39,000  Level FlightAware
06:44AM 34.2490 30.6750 120° Southeast 521 600 39,000  Level FlightAware
06:45AM 34.2080 30.7600 120° Southeast 521 600 39,000  Level FlightAware
06:46AM 34.1570 30.8660 120° Southeast 521 600 39,000  Level FlightAware
06:46AM 34.1210 30.9410 120° Southeast 519 597 39,000  Level FlightAware
06:47AM 34.0780 31.0310 120° Southeast 519 597 39,000  Level FlightAware
06:47AM 34.0360 31.1170 120° Southeast 518 596 39,000  Level FlightAware
06:48AM 33.9920 31.2070 121° Southeast 517 595 39,000  Level FlightAware
06:48AM 33.9500 31.2960 120° Southeast 516 594 39,000  Level FlightAware
06:49AM 33.9060 31.3840 121° Southeast 516 594 39,000  Level FlightAware
06:50AM 33.8650 31.4680 120° Southeast 516 594 39,000  Level FlightAware
06:50AM 33.8220 31.5570 120° Southeast 516 594 39,000  Level FlightAware
06:51AM 33.7720 31.6590 121° Southeast 516 594 39,000  Level FlightAware
06:51AM 33.7300 31.7440 121° Southeast 517 595 39,000  Level FlightAware
06:52AM 33.6860 31.8340 120° Southeast 513 590 39,000  Level FlightAware
06:53AM 33.6430 31.9210 121° Southeast 514 592 39,000  Level FlightAware
06:53AM 33.6010 32.0050 121° Southeast 514 592 39,000  Level FlightAware
06:54AM 33.5640 32.0810 120° Southeast 514 592 39,000 -600 Level FlightAware
06:54AM 33.5140 32.1820 121° Southeast 513 590 38,300 -1,200 Descending FlightAware
06:55AM 33.4660 32.2780 121° Southeast 515 593 37,400 -1,320 Descending FlightAware
06:56AM 33.4210 32.3690 121° Southeast 511 588 36,700 -1,380 Descending FlightAware
06:56AM 33.3780 32.4530 121° Southeast 511 588 35,800 -1,800 Descending FlightAware
06:57AM 33.3360 32.5360 121° Southeast 513 590 34,600 -2,280 Descending FlightAware
06:57AM 33.2920 32.6250 121° Southeast 530 610 33,200 -2,340 Descending FlightAware
06:58AM 33.2500 32.7080 121° Southeast 537 618 31,900 -2,280 Descending FlightAware
06:59AM 33.2040 32.7990 121° Southeast 540 621 30,600 -1,920 Descending FlightAware
06:59AM 33.1620 32.8830 121° Southeast 537 618 29,800 -2,160 Descending FlightAware
07:00AM 33.1170 32.9700 122° Southeast 546 628 28,200 -2,340 Descending FlightAware
07:00AM 33.0730 33.0570 121° Southeast 522 601 27,100 -2,100 Descending FlightAware
07:01AM 33.0250 33.1510 121° Southeast 480 552 25,700 -1,680 Descending FlightAware
07:02AM 32.9800 33.2390 121° Southeast 464 534 24,900 -1,980 Descending FlightAware
07:02AM 32.9430 33.3100 122° Southeast 426 490 23,200 -2,640 Descending FlightAware
07:03AM 32.9040 33.3850 122° Southeast 417 480 21,900 -2,160 Descending FlightAware
07:03AM 32.8730 33.4470 121° Southeast 411 473 20,800 -2,040 Descending FlightAware
07:04AM 32.8330 33.5240 122° Southeast 403 464 19,500 -1,980 Descending FlightAware
07:05AM 32.8000 33.5880 122° Southeast 397 457 18,400 -1,860 Descending FlightAware
07:05AM 32.7680 33.6510 121° Southeast 379 436 17,400 -1,860 Descending FlightAware
07:06AM 32.7350 33.7150 121° Southeast 354 407 16,200 -1,920 Descending FlightAware
07:06AM 32.7090 33.7640 122° Southeast 347 399 15,300 -1,620 Descending FlightAware
07:07AM 32.6770 33.8260 122° Southeast 342 394 14,400 -1,500 Descending FlightAware
07:08AM 32.6480 33.8820 122° Southeast 335 386 13,500 -1,500 Descending FlightAware
07:08AM 32.6180 33.9390 122° Southeast 328 377 12,600 -1,500 Descending FlightAware
07:09AM 32.5930 33.9860 122° Southeast 323 372 11,800 -1,440 Descending FlightAware
07:09AM 32.5650 34.0410 121° Southeast 317 365 11,000 -1,440 Descending FlightAware
07:10AM 32.5380 34.0930 122° Southeast 311 358 10,100 -1,500 Descending FlightAware
07:10AM 32.5170 34.1320 123° Southeast 309 356 9,500 -1,500 Descending FlightAware
07:11AM 32.5010 34.1610 123° Southeast 308 354 8,900 -1,500 Descending FlightAware
07:11AM 32.4870 34.1810 130° Southeast 306 352 8,600 -1,020 Descending FlightAware
07:11AM 32.4690 34.2020 135° Southeast 301 346 8,200 -960 Descending FlightAware
07:12AM 32.4400 34.2370 134° Southeast 288 331 7,800 -1,140 Descending FlightAware
07:12AM 32.4240 34.2560 135° Southeast 286 329 7,400 -1,440 Descending FlightAware
07:12AM 32.3950 34.2890 136° Southeast 282 325 6,700 -1,440 Descending FlightAware
07:13AM 32.3780 34.3090 135° Southeast 283 326 6,300 -900 Descending FlightAware
07:13AM 32.3560 34.3360 134° Southeast 281 323 6,000 -420 Descending FlightAware
07:14AM 32.3310 34.3650 136° Southeast 285 328 6,000  Level FlightAware
07:14AM 32.3130 34.3860 135° Southeast 284 327 6,000  Level FlightAware
07:15AM 32.2930 34.4100 135° Southeast 284 327 6,000 -180 Level FlightAware
07:17AM 32.1213 34.6811 125° Southeast  Level FlightAware Approximate
07:17AM 32.1780 34.5970 125° Southeast 243 280 5,500  Level FlightAware
07:17AM 32.1680 34.6150 123° Southeast 243 280 5,200 -900 Descending FlightAware
07:18AM 32.1590 34.6320 122° Southeast 253 291 5,000 -360 Descending FlightAware
07:18AM 32.1460 34.6550 124° Southeast 250 288 5,000 120 Level FlightAware
07:18AM 32.1300 34.6840 123° Southeast 251 289 5,100 60 Climbing FlightAware
07:19AM 32.1120 34.7160 124° Southeast 252 290 5,100 -180 Level FlightAware
07:19AM 32.1040 34.7300 124° Southeast 248 285 5,000  Descending FlightAware
07:19AM 32.0940 34.7480 123° Southeast 239 275 5,100  Climbing FlightAware
07:20AM 32.0780 34.7760 124° Southeast 231 266 5,000 -300 Descending FlightAware
07:20AM 32.0650 34.7900 138° Southeast 234 269 4,900 -360 Descending FlightAware
07:20AM 32.0520 34.8060 134° Southeast 233 268 4,800 -300 Descending FlightAware
07:21AM 32.0370 34.8230 136° Southeast 232 267 4,700 -540 Descending FlightAware
07:21AM 32.0160 34.8460 137° Southeast 210 242 4,400 -1,200 Descending FlightAware
07:21AM 32.0020 34.8620 136° Southeast 209 241 3,900 -1,500 Descending FlightAware
07:22AM 31.9920 34.8770 128° Southeast 211 243 3,500 -1,560 Descending FlightAware
07:22AM 31.9900 34.8910 100° East 200 230 3,100 -1,380 Descending FlightAware
07:22AM 31.9910 34.8960 77° East 195 224 3,100 -780 Level FlightAware
07:22AM 31.9940 34.9150 79° East 195 224 2,800 -1,020 Descending FlightAware
07:23AM 31.9980 34.9320 74° East 191 220 2,500 -1,080 Descending FlightAware
07:23AM 32.0030 34.9490 71° East 186 214 2,200 -1,200 Descending FlightAware
07:23AM 32.0080 34.9560 50° Northeast 179 206 2,000 -1,140 Descending FlightAware
07:23AM 32.0170 34.9620 29° Northeast 170 196 1,800 -1,020 Descending FlightAware
07:23AM 32.0220 34.9630 10° North 163 188 1,700 -840 Descending FlightAware
07:24AM 32.0400 34.9550 339° North 141 162 1,300 -840 Descending FlightAware
07:24AM 32.0430 34.9510 312° West 146 168 1,200 -360 Descending FlightAware
07:25AM 32.0490 34.9310 289° West 149 171 1,100 -720 Descending FlightAware
07:25AM 32.0390 34.9180 228° Southwest 145 167 700 -1,200 Descending FlightAware
07:25AM 32.0360 34.9000 259° West 145 167 400 -720 Descending FlightAware
07:25AM 32.0340 34.8890 258° West 145 167 200 -720 Descending FlightAware
07:26AM 32.0320 34.8740 261° West 80 92 -720 Descending FlightAware